Time,TemperatureF,DewpointF,PressureIn,WindDirection,WindDirectionDegrees,WindSpeedMPH,WindSpeedGustMPH,Humidity,HourlyPrecipIn,Conditions,Clouds,dailyrainin,SoftwareType,DateUTC
2013-02-13 00:01:00,42.4,38.5,29.94,East,80,3.0,4.0,86,0.00,,,0.00,Wunderground v.1.13,2013-02-13 05:01:00,
2013-02-13 00:02:00,42.4,38.5,29.94,East,80,3.0,4.0,86,0.00,,,0.00,Wunderground v.1.13,2013-02-13 05:02:00,
2013-02-13 00:03:00,42.5,38.3,29.94,East,80,3.0,4.0,85,0.00,,,0.00,Wunderground v.1.13,2013-02-13 05:03:00,
2013-02-13 00:09:00,42.7,38.5,29.94,East,81,2.0,6.0,85,0.00,,,0.00,Wunderground v.1.13,2013-02-13 05:09:00,
2013-02-13 00:12:00,42.8,38.3,29.94,East,81,1.0,2.0,84,0.00,,,0.00,Wunderground v.1.13,2013-02-13 05:12:00,
2013-02-13 00:18:00,43.1,38.6,29.93,ENE,76,2.0,4.0,84,0.00,,,0.00,Wunderground v.1.13,2013-02-13 05:18:00,
2013-02-13 00:23:00,43.3,38.5,29.93,ENE,76,1.0,1.0,83,0.00,,,0.00,Wunderground v.1.13,2013-02-13 05:23:00,
2013-02-13 00:29:00,43.4,38.3,29.93,ENE,77,1.0,4.0,82,0.00,,,0.00,Wunderground v.1.13,2013-02-13 05:29:00,
2013-02-13 00:34:00,43.6,38.2,29.93,East,84,3.0,4.0,81,0.00,,,0.00,Wunderground v.1.13,2013-02-13 05:34:00,
2013-02-13 00:39:00,43.8,38.3,29.93,East,84,3.0,3.0,81,0.00,,,0.00,Wunderground v.1.13,2013-02-13 05:39:00,
2013-02-13 00:45:00,43.8,38.3,29.93,East,84,1.0,2.0,81,0.00,,,0.00,Wunderground v.1.13,2013-02-13 05:45:00,
2013-02-13 00:51:00,43.9,38.4,29.92,East,82,1.0,3.0,81,0.00,,,0.00,Wunderground v.1.13,2013-02-13 05:51:00,
2013-02-13 00:56:00,44.0,38.5,29.91,East,91,2.0,6.0,81,0.00,,,0.00,Wunderground v.1.13,2013-02-13 05:56:00,
2013-02-13 01:02:00,44.2,38.4,29.91,East,90,2.0,3.0,80,0.00,,,0.00,Wunderground v.1.13,2013-02-13 06:02:00,
2013-02-13 01:07:00,44.3,38.5,29.91,East,89,2.0,4.0,80,0.00,,,0.00,Wunderground v.1.13,2013-02-13 06:07:00,
2013-02-13 01:13:00,44.4,38.6,29.91,East,89,1.0,2.0,80,0.00,,,0.00,Wunderground v.1.13,2013-02-13 06:13:00,
2013-02-13 01:18:00,44.5,38.7,29.90,East,88,2.0,5.0,80,0.00,,,0.00,Wunderground v.1.13,2013-02-13 06:18:00,
2013-02-13 01:24:00,44.6,38.8,29.89,East,91,3.0,4.0,80,0.00,,,0.00,Wunderground v.1.13,2013-02-13 06:24:00,
2013-02-13 01:30:00,44.6,38.5,29.89,East,92,3.0,7.0,79,0.00,,,0.00,Wunderground v.1.13,2013-02-13 06:30:00,
2013-02-13 01:36:00,44.7,38.6,29.89,ESE,105,4.0,5.0,79,0.00,,,0.00,Wunderground v.1.13,2013-02-13 06:36:00,
2013-02-13 01:41:00,44.6,38.5,29.89,East,86,4.0,5.0,79,0.00,,,0.00,Wunderground v.1.13,2013-02-13 06:41:00,
2013-02-13 01:47:00,44.6,38.5,29.89,East,96,3.0,4.0,79,0.00,,,0.00,Wunderground v.1.13,2013-02-13 06:47:00,
2013-02-13 01:52:00,44.5,38.7,29.89,East,94,3.0,4.0,80,0.00,,,0.00,Wunderground v.1.13,2013-02-13 06:52:00,
2013-02-13 01:58:00,44.5,38.4,29.88,East,92,3.0,5.0,79,0.00,,,0.00,Wunderground v.1.13,2013-02-13 06:58:00,
2013-02-13 02:04:00,44.5,38.4,29.88,East,92,2.0,3.0,79,0.00,,,0.00,Wunderground v.1.13,2013-02-13 07:04:00,
2013-02-13 02:09:00,44.5,38.4,29.87,East,91,2.0,4.0,79,0.00,,,0.00,Wunderground v.1.13,2013-02-13 07:09:00,
2013-02-13 02:15:00,44.7,38.3,29.87,East,92,5.0,6.0,78,0.00,,,0.00,Wunderground v.1.13,2013-02-13 07:15:00,
2013-02-13 02:21:00,45.0,38.2,29.87,East,88,6.0,6.0,77,0.00,,,0.00,Wunderground v.1.13,2013-02-13 07:21:00,
2013-02-13 02:26:00,45.1,38.0,29.87,East,88,5.0,9.0,76,0.00,,,0.00,Wunderground v.1.13,2013-02-13 07:26:00,
2013-02-13 02:32:00,45.1,38.3,29.86,ESE,109,5.0,5.0,77,0.00,,,0.00,Wunderground v.1.13,2013-02-13 07:32:00,
2013-02-13 02:38:00,45.0,38.2,29.87,East,84,4.0,5.0,77,0.00,,,0.00,Wunderground v.1.13,2013-02-13 07:38:00,
2013-02-13 02:44:00,44.9,38.8,29.87,East,82,3.0,4.0,79,0.00,,,0.01,Wunderground v.1.13,2013-02-13 07:44:00,
2013-02-13 02:49:00,44.5,39.0,29.87,East,87,2.0,2.0,81,0.12,,,0.02,Wunderground v.1.13,2013-02-13 07:49:00,
2013-02-13 02:55:00,44.2,39.1,29.87,East,87,0.0,1.0,82,0.09,,,0.03,Wunderground v.1.13,2013-02-13 07:55:00,
2013-02-13 03:01:00,43.9,39.1,29.87,East,87,0.0,0.0,83,0.15,,,0.05,Wunderground v.1.13,2013-02-13 08:01:00,
2013-02-13 03:07:00,43.4,38.9,29.87,East,87,1.0,3.0,84,0.16,,,0.06,Wunderground v.1.13,2013-02-13 08:07:00,
2013-02-13 03:12:00,43.0,39.1,29.86,East,90,4.0,7.0,86,0.13,,,0.07,Wunderground v.1.13,2013-02-13 08:12:00,
2013-02-13 03:18:00,42.7,39.1,29.86,East,96,5.0,5.0,87,0.17,,,0.09,Wunderground v.1.13,2013-02-13 08:18:00,
2013-02-13 03:23:00,42.4,39.1,29.86,East,88,4.0,5.0,88,0.08,,,0.09,Wunderground v.1.13,2013-02-13 08:23:00,
2013-02-13 03:29:00,42.2,38.9,29.85,East,92,4.0,7.0,88,0.06,,,0.10,Wunderground v.1.13,2013-02-13 08:29:00,
2013-02-13 03:35:00,42.1,39.1,29.84,East,92,5.0,6.0,89,0.07,,,0.11,Wunderground v.1.13,2013-02-13 08:35:00,
2013-02-13 03:41:00,41.9,38.9,29.84,East,90,5.0,6.0,89,0.11,,,0.12,Wunderground v.1.13,2013-02-13 08:41:00,
2013-02-13 03:46:00,41.9,39.2,29.84,East,94,3.0,5.0,90,0.14,,,0.13,Wunderground v.1.13,2013-02-13 08:46:00,
2013-02-13 03:53:00,41.8,39.4,29.84,East,91,2.0,4.0,91,0.06,,,0.13,Wunderground v.1.13,2013-02-13 08:53:00,
2013-02-13 03:58:00,41.8,39.4,29.83,East,90,3.0,7.0,91,0.04,,,0.13,Wunderground v.1.13,2013-02-13 08:58:00,
2013-02-13 04:03:00,41.8,39.4,29.83,East,86,4.0,8.0,91,0.00,,,0.13,Wunderground v.1.13,2013-02-13 09:03:00,
2013-02-13 04:09:00,41.8,39.6,29.83,East,89,3.0,3.0,92,0.00,,,0.13,Wunderground v.1.13,2013-02-13 09:09:00,
2013-02-13 04:15:00,41.7,39.5,29.82,East,92,3.0,5.0,92,0.00,,,0.14,Wunderground v.1.13,2013-02-13 09:15:00,
2013-02-13 04:20:00,41.7,39.5,29.82,East,93,3.0,4.0,92,0.16,,,0.16,Wunderground v.1.13,2013-02-13 09:20:00,
2013-02-13 04:26:00,41.7,39.5,29.82,East,94,2.0,3.0,92,0.59,,,0.20,Wunderground v.1.13,2013-02-13 09:26:00,
2013-02-13 04:31:00,41.6,39.4,29.82,East,94,1.0,3.0,92,0.39,,,0.23,Wunderground v.1.13,2013-02-13 09:31:00,
2013-02-13 04:36:00,41.5,39.3,29.81,East,89,3.0,5.0,92,0.14,,,0.24,Wunderground v.1.13,2013-02-13 09:36:00,
2013-02-13 04:42:00,41.5,39.6,29.80,East,92,4.0,7.0,93,0.09,,,0.25,Wunderground v.1.13,2013-02-13 09:42:00,
2013-02-13 04:47:00,41.5,39.6,29.80,East,86,3.0,4.0,93,0.07,,,0.25,Wunderground v.1.13,2013-02-13 09:47:00,
2013-02-13 04:53:00,41.6,39.7,29.81,ENE,67,2.0,4.0,93,0.04,,,0.25,Wunderground v.1.13,2013-02-13 09:53:00,
2013-02-13 04:59:00,41.5,39.6,29.81,ENE,59,2.0,6.0,93,0.00,,,0.25,Wunderground v.1.13,2013-02-13 09:59:00,
2013-02-13 05:05:00,41.6,39.7,29.80,East,82,2.0,3.0,93,0.00,,,0.25,Wunderground v.1.13,2013-02-13 10:05:00,
2013-02-13 05:10:00,41.6,39.7,29.80,East,82,4.0,4.0,93,0.00,,,0.25,Wunderground v.1.13,2013-02-13 10:10:00,
2013-02-13 05:16:00,41.6,39.7,29.79,East,82,2.0,3.0,93,0.00,,,0.25,Wunderground v.1.13,2013-02-13 10:16:00,
2013-02-13 05:21:00,41.7,39.8,29.78,East,84,2.0,4.0,93,0.00,,,0.25,Wunderground v.1.13,2013-02-13 10:21:00,
2013-02-13 05:27:00,41.7,39.8,29.78,East,85,2.0,2.0,93,0.00,,,0.25,Wunderground v.1.13,2013-02-13 10:27:00,
2013-02-13 05:32:00,41.7,39.8,29.78,East,83,2.0,5.0,93,0.00,,,0.26,Wunderground v.1.13,2013-02-13 10:32:00,
2013-02-13 05:37:00,41.7,39.8,29.78,East,83,1.0,2.0,93,0.00,,,0.26,Wunderground v.1.13,2013-02-13 10:37:00,
2013-02-13 05:42:00,41.7,39.8,29.78,East,83,0.0,3.0,93,0.00,,,0.26,Wunderground v.1.13,2013-02-13 10:42:00,
2013-02-13 05:48:00,41.7,39.8,29.78,East,81,1.0,3.0,93,0.00,,,0.26,Wunderground v.1.13,2013-02-13 10:48:00,
2013-02-13 05:54:00,41.7,40.1,29.77,East,80,1.0,2.0,94,0.00,,,0.26,Wunderground v.1.13,2013-02-13 10:54:00,
2013-02-13 05:59:00,41.8,40.2,29.77,ENE,76,0.0,0.0,94,0.00,,,0.26,Wunderground v.1.13,2013-02-13 10:59:00,
2013-02-13 06:05:00,41.9,40.3,29.77,East,81,1.0,1.0,94,0.00,,,0.26,Wunderground v.1.13,2013-02-13 11:05:00,
2013-02-13 06:11:00,41.9,40.0,29.76,NE,34,1.0,1.0,93,0.00,,,0.26,Wunderground v.1.13,2013-02-13 11:11:00,
2013-02-13 06:16:00,41.9,40.0,29.77,NE,34,1.0,2.0,93,0.00,,,0.26,Wunderground v.1.13,2013-02-13 11:16:00,
2013-02-13 06:22:00,41.9,40.0,29.76,NNE,33,1.0,6.0,93,0.00,,,0.26,Wunderground v.1.13,2013-02-13 11:22:00,
2013-02-13 06:28:00,41.9,40.0,29.76,NNE,33,2.0,4.0,93,0.00,,,0.26,Wunderground v.1.13,2013-02-13 11:28:00,
2013-02-13 06:34:00,41.9,40.0,29.76,NE,34,1.0,3.0,93,0.00,,,0.26,Wunderground v.1.13,2013-02-13 11:34:00,
2013-02-13 06:39:00,41.9,40.0,29.76,NE,34,0.0,0.0,93,0.00,,,0.26,Wunderground v.1.13,2013-02-13 11:39:00,
2013-02-13 06:45:00,41.9,40.0,29.75,NE,40,0.0,2.0,93,0.00,,,0.26,Wunderground v.1.13,2013-02-13 11:45:00,
2013-02-13 06:50:00,42.0,40.1,29.75,NE,40,0.0,0.0,93,0.00,,,0.26,Wunderground v.1.13,2013-02-13 11:50:00,
2013-02-13 06:56:00,42.0,40.4,29.75,NE,40,0.0,0.0,94,0.00,,,0.26,Wunderground v.1.13,2013-02-13 11:56:00,
2013-02-13 07:02:00,42.0,40.4,29.75,NE,40,0.0,3.0,94,0.00,,,0.26,Wunderground v.1.13,2013-02-13 12:02:00,
2013-02-13 07:07:00,42.0,40.4,29.75,NE,40,0.0,0.0,94,0.00,,,0.26,Wunderground v.1.13,2013-02-13 12:07:00,
2013-02-13 07:13:00,42.0,40.4,29.76,NE,40,0.0,2.0,94,0.00,,,0.26,Wunderground v.1.13,2013-02-13 12:13:00,
2013-02-13 07:19:00,42.0,40.4,29.75,NE,40,0.0,0.0,94,0.00,,,0.26,Wunderground v.1.13,2013-02-13 12:19:00,
2013-02-13 07:24:00,42.0,40.4,29.75,NE,40,0.0,0.0,94,0.00,,,0.26,Wunderground v.1.13,2013-02-13 12:24:00,
2013-02-13 07:30:00,42.0,40.4,29.76,NE,40,0.0,0.0,94,0.00,,,0.26,Wunderground v.1.13,2013-02-13 12:30:00,
2013-02-13 07:36:00,42.0,40.4,29.76,NE,40,0.0,1.0,94,0.00,,,0.26,Wunderground v.1.13,2013-02-13 12:36:00,
2013-02-13 07:42:00,42.0,40.4,29.75,NE,40,0.0,0.0,94,0.00,,,0.26,Wunderground v.1.13,2013-02-13 12:42:00,
2013-02-13 07:47:00,42.0,40.4,29.75,NE,40,0.0,0.0,94,0.00,,,0.26,Wunderground v.1.13,2013-02-13 12:47:00,
2013-02-13 07:53:00,42.1,40.5,29.74,NE,40,0.0,0.0,94,0.00,,,0.26,Wunderground v.1.13,2013-02-13 12:53:00,
2013-02-13 07:58:00,42.1,40.5,29.75,NE,40,0.0,0.0,94,0.00,,,0.26,Wunderground v.1.13,2013-02-13 12:58:00,
2013-02-13 08:04:00,42.1,40.5,29.75,NE,40,0.0,0.0,94,0.00,,,0.26,Wunderground v.1.13,2013-02-13 13:04:00,
2013-02-13 08:10:00,42.1,40.5,29.75,NE,40,0.0,0.0,94,0.00,,,0.26,Wunderground v.1.13,2013-02-13 13:10:00,
2013-02-13 08:15:00,42.1,40.5,29.75,NE,40,0.0,0.0,94,0.00,,,0.26,Wunderground v.1.13,2013-02-13 13:15:00,
2013-02-13 08:21:00,42.2,40.6,29.74,NE,40,0.0,0.0,94,0.00,,,0.26,Wunderground v.1.13,2013-02-13 13:21:00,
2013-02-13 08:27:00,42.2,40.6,29.75,NE,40,0.0,0.0,94,0.00,,,0.26,Wunderground v.1.13,2013-02-13 13:27:00,
2013-02-13 08:33:00,42.2,40.6,29.75,NE,40,0.0,1.0,94,0.00,,,0.26,Wunderground v.1.13,2013-02-13 13:33:00,
2013-02-13 08:38:00,42.2,40.6,29.75,NE,40,0.0,1.0,94,0.00,,,0.26,Wunderground v.1.13,2013-02-13 13:38:00,
2013-02-13 08:44:00,42.3,40.7,29.75,NE,40,0.0,0.0,94,0.00,,,0.26,Wunderground v.1.13,2013-02-13 13:44:00,
2013-02-13 08:49:00,42.3,40.7,29.75,NE,40,0.0,0.0,94,0.00,,,0.26,Wunderground v.1.13,2013-02-13 13:49:00,
2013-02-13 08:55:00,42.4,40.8,29.75,NE,38,0.0,3.0,94,0.00,,,0.26,Wunderground v.1.13,2013-02-13 13:55:00,
2013-02-13 09:01:00,42.5,40.9,29.75,NE,35,1.0,2.0,94,0.00,,,0.26,Wunderground v.1.13,2013-02-13 14:01:00,
2013-02-13 09:07:00,42.5,40.9,29.75,NE,35,1.0,1.0,94,0.00,,,0.26,Wunderground v.1.13,2013-02-13 14:07:00,
2013-02-13 09:12:00,42.6,41.0,29.75,NE,34,0.0,2.0,94,0.00,,,0.26,Wunderground v.1.13,2013-02-13 14:12:00,
2013-02-13 09:18:00,42.6,41.0,29.76,NNE,25,1.0,4.0,94,0.00,,,0.26,Wunderground v.1.13,2013-02-13 14:18:00,
2013-02-13 09:23:00,42.6,41.0,29.76,NNE,15,2.0,3.0,94,0.00,,,0.26,Wunderground v.1.13,2013-02-13 14:23:00,
2013-02-13 09:29:00,42.6,41.0,29.77,NNW,344,2.0,3.0,94,0.00,,,0.26,Wunderground v.1.13,2013-02-13 14:29:00,
2013-02-13 09:34:00,42.6,41.0,29.77,NW,320,3.0,3.0,94,0.00,,,0.26,Wunderground v.1.13,2013-02-13 14:34:00,
2013-02-13 09:39:00,42.6,41.0,29.76,NW,320,2.0,2.0,94,0.00,,,0.26,Wunderground v.1.13,2013-02-13 14:39:00,
2013-02-13 09:45:00,42.7,41.1,29.76,NW,320,1.0,3.0,94,0.00,,,0.26,Wunderground v.1.13,2013-02-13 14:45:00,
2013-02-13 09:51:00,42.7,41.1,29.76,NW,320,2.0,2.0,94,0.00,,,0.26,Wunderground v.1.13,2013-02-13 14:51:00,
2013-02-13 09:56:00,42.8,41.2,29.76,NW,320,2.0,3.0,94,0.00,,,0.26,Wunderground v.1.13,2013-02-13 14:56:00,
2013-02-13 10:01:00,42.9,41.3,29.76,NW,320,1.0,1.0,94,0.00,,,0.26,Wunderground v.1.13,2013-02-13 15:01:00,
2013-02-13 10:07:00,42.9,41.3,29.76,NW,320,1.0,2.0,94,0.00,,,0.26,Wunderground v.1.13,2013-02-13 15:07:00,
2013-02-13 10:12:00,42.9,41.3,29.77,NW,320,2.0,3.0,94,0.00,,,0.26,Wunderground v.1.13,2013-02-13 15:12:00,
2013-02-13 10:18:00,43.1,41.8,29.76,NW,320,1.0,3.0,95,0.00,,,0.26,Wunderground v.1.13,2013-02-13 15:18:00,
2013-02-13 10:24:00,43.2,41.9,29.75,NW,320,1.0,4.0,95,0.00,,,0.26,Wunderground v.1.13,2013-02-13 15:24:00,
2013-02-13 10:29:00,43.2,41.9,29.76,NW,313,2.0,5.0,95,0.00,,,0.26,Wunderground v.1.13,2013-02-13 15:29:00,
2013-02-13 10:34:00,43.3,42.0,29.75,NW,312,2.0,2.0,95,0.00,,,0.27,Wunderground v.1.13,2013-02-13 15:34:00,
2013-02-13 10:40:00,43.3,42.0,29.76,NW,305,3.0,4.0,95,0.00,,,0.27,Wunderground v.1.13,2013-02-13 15:40:00,
2013-02-13 10:46:00,43.3,42.0,29.75,WNW,303,3.0,6.0,95,0.00,,,0.27,Wunderground v.1.13,2013-02-13 15:46:00,
2013-02-13 10:51:00,43.4,42.1,29.75,WNW,293,2.0,4.0,95,0.00,,,0.27,Wunderground v.1.13,2013-02-13 15:51:00,
2013-02-13 10:57:00,43.4,42.1,29.76,WNW,288,3.0,5.0,95,0.00,,,0.27,Wunderground v.1.13,2013-02-13 15:57:00,
2013-02-13 11:03:00,43.5,42.2,29.76,WNW,286,4.0,5.0,95,0.00,,,0.27,Wunderground v.1.13,2013-02-13 16:03:00,
2013-02-13 11:08:00,43.5,42.2,29.76,West,272,4.0,8.0,95,0.00,,,0.27,Wunderground v.1.13,2013-02-13 16:08:00,
2013-02-13 11:14:00,43.6,42.3,29.76,West,272,4.0,6.0,95,0.00,,,0.27,Wunderground v.1.13,2013-02-13 16:14:00,
2013-02-13 11:20:00,43.7,42.4,29.76,West,269,4.0,4.0,95,0.00,,,0.27,Wunderground v.1.13,2013-02-13 16:20:00,
2013-02-13 11:25:00,43.8,42.5,29.76,West,269,3.0,4.0,95,0.00,,,0.27,Wunderground v.1.13,2013-02-13 16:25:00,
2013-02-13 11:31:00,44.1,42.8,29.76,West,269,3.0,4.0,95,0.00,,,0.27,Wunderground v.1.13,2013-02-13 16:31:00,
2013-02-13 11:37:00,44.0,42.7,29.76,WSW,254,5.0,5.0,95,0.00,,,0.27,Wunderground v.1.13,2013-02-13 16:37:00,
2013-02-13 11:42:00,44.0,42.7,29.76,WSW,248,6.0,7.0,95,0.00,,,0.27,Wunderground v.1.13,2013-02-13 16:42:00,
2013-02-13 11:48:00,43.9,42.6,29.77,West,267,7.0,11.0,95,0.00,,,0.27,Wunderground v.1.13,2013-02-13 16:48:00,
2013-02-13 11:54:00,43.8,42.5,29.76,WSW,257,7.0,11.0,95,0.00,,,0.27,Wunderground v.1.13,2013-02-13 16:54:00,
2013-02-13 11:59:00,43.7,42.4,29.75,West,261,7.0,7.0,95,0.00,,,0.27,Wunderground v.1.13,2013-02-13 16:59:00,
2013-02-13 12:04:00,43.7,42.4,29.75,West,269,7.0,10.0,95,0.00,,,0.27,Wunderground v.1.13,2013-02-13 17:04:00,
2013-02-13 12:10:00,43.7,42.4,29.75,WSW,257,6.0,6.0,95,0.00,,,0.27,Wunderground v.1.13,2013-02-13 17:10:00,
2013-02-13 12:15:00,43.9,42.6,29.75,WSW,250,5.0,6.0,95,0.00,,,0.27,Wunderground v.1.13,2013-02-13 17:15:00,
2013-02-13 12:21:00,43.9,42.6,29.75,West,262,6.0,7.0,95,0.00,,,0.27,Wunderground v.1.13,2013-02-13 17:21:00,
2013-02-13 12:26:00,44.0,42.7,29.75,West,259,7.0,8.0,95,0.00,,,0.27,Wunderground v.1.13,2013-02-13 17:26:00,
2013-02-13 12:31:00,44.1,42.8,29.75,WSW,257,7.0,9.0,95,0.00,,,0.27,Wunderground v.1.13,2013-02-13 17:31:00,
2013-02-13 12:37:00,44.2,42.9,29.75,WSW,254,6.0,8.0,95,0.00,,,0.27,Wunderground v.1.13,2013-02-13 17:37:00,
2013-02-13 12:43:00,44.2,42.9,29.75,West,259,6.0,10.0,95,0.00,,,0.27,Wunderground v.1.13,2013-02-13 17:43:00,
2013-02-13 12:48:00,44.2,42.9,29.74,WSW,247,7.0,12.0,95,0.00,,,0.27,Wunderground v.1.13,2013-02-13 17:48:00,
2013-02-13 12:54:00,44.2,42.9,29.74,SW,233,6.0,6.0,95,0.00,,,0.27,Wunderground v.1.13,2013-02-13 17:54:00,
2013-02-13 12:59:00,44.3,43.0,29.74,West,264,6.0,8.0,95,0.00,,,0.28,Wunderground v.1.13,2013-02-13 17:59:00,
2013-02-13 13:05:00,44.4,43.1,29.74,WSW,254,7.0,7.0,95,0.00,,,0.28,Wunderground v.1.13,2013-02-13 18:05:00,
2013-02-13 13:11:00,44.5,43.2,29.74,West,263,7.0,7.0,95,0.00,,,0.28,Wunderground v.1.13,2013-02-13 18:11:00,
2013-02-13 13:16:00,44.7,43.4,29.74,WSW,258,7.0,11.0,95,0.00,,,0.28,Wunderground v.1.13,2013-02-13 18:16:00,
2013-02-13 13:22:00,44.8,43.7,29.74,WSW,258,8.0,10.0,96,0.00,,,0.29,Wunderground v.1.13,2013-02-13 18:22:00,
2013-02-13 13:28:00,45.0,43.9,29.74,West,265,9.0,14.0,96,0.06,,,0.30,Wunderground v.1.13,2013-02-13 18:28:00,
2013-02-13 13:34:00,45.5,44.4,29.74,West,266,9.0,13.0,96,0.06,,,0.30,Wunderground v.1.13,2013-02-13 18:34:00,
2013-02-13 13:39:00,45.7,44.6,29.74,WSW,258,10.0,15.0,96,0.05,,,0.30,Wunderground v.1.13,2013-02-13 18:39:00,
2013-02-13 13:45:00,45.7,44.6,29.74,West,275,10.0,10.0,96,0.00,,,0.30,Wunderground v.1.13,2013-02-13 18:45:00,
2013-02-13 13:50:00,45.6,44.5,29.74,WSW,244,11.0,13.0,96,0.00,,,0.30,Wunderground v.1.13,2013-02-13 18:50:00,
2013-02-13 13:56:00,45.6,44.5,29.74,West,267,13.0,18.0,96,0.00,,,0.31,Wunderground v.1.13,2013-02-13 18:56:00,
2013-02-13 14:02:00,45.8,44.7,29.75,West,268,12.0,14.0,96,0.00,,,0.31,Wunderground v.1.13,2013-02-13 19:02:00,
2013-02-13 14:08:00,46.0,44.9,29.75,WSW,254,11.0,15.0,96,0.00,,,0.31,Wunderground v.1.13,2013-02-13 19:08:00,
2013-02-13 14:13:00,45.8,44.4,29.75,West,261,12.0,17.0,95,0.00,,,0.31,Wunderground v.1.13,2013-02-13 19:13:00,
2013-02-13 14:19:00,45.7,44.1,29.75,West,260,13.0,20.0,94,0.00,,,0.31,Wunderground v.1.13,2013-02-13 19:19:00,
2013-02-13 14:24:00,45.8,44.2,29.75,West,273,13.0,17.0,94,0.00,,,0.31,Wunderground v.1.13,2013-02-13 19:24:00,
2013-02-13 14:30:00,46.4,44.8,29.75,WSW,252,13.0,13.0,94,0.00,,,0.31,Wunderground v.1.13,2013-02-13 19:30:00,
2013-02-13 14:35:00,46.5,44.6,29.76,West,263,13.0,13.0,93,0.00,,,0.31,Wunderground v.1.13,2013-02-13 19:35:00,
2013-02-13 14:41:00,46.2,44.0,29.77,WNW,288,13.0,19.0,92,0.00,,,0.31,Wunderground v.1.13,2013-02-13 19:41:00,
2013-02-13 14:46:00,45.1,42.6,29.77,West,265,14.0,14.0,91,0.00,,,0.32,Wunderground v.1.13,2013-02-13 19:46:00,
2013-02-13 14:52:00,44.5,41.7,29.79,WNW,284,13.0,20.0,90,0.00,,,0.32,Wunderground v.1.13,2013-02-13 19:52:00,
2013-02-13 14:57:00,43.7,40.7,29.79,WNW,292,14.0,15.0,89,0.05,,,0.33,Wunderground v.1.13,2013-02-13 19:57:00,
2013-02-13 15:03:00,43.0,40.0,29.79,WNW,286,14.0,15.0,89,0.05,,,0.33,Wunderground v.1.13,2013-02-13 20:03:00,
2013-02-13 15:09:00,42.6,39.6,29.80,WNW,293,12.0,14.0,89,0.05,,,0.34,Wunderground v.1.13,2013-02-13 20:09:00,
2013-02-13 15:14:00,42.4,39.7,29.79,NW,321,11.0,15.0,90,0.05,,,0.34,Wunderground v.1.13,2013-02-13 20:14:00,
2013-02-13 15:20:00,41.7,38.4,29.80,WNW,292,13.0,13.0,88,0.06,,,0.35,Wunderground v.1.13,2013-02-13 20:20:00,
2013-02-13 15:26:00,41.4,38.1,29.80,WNW,296,14.0,14.0,88,0.06,,,0.35,Wunderground v.1.13,2013-02-13 20:26:00,
2013-02-13 15:31:00,41.2,37.9,29.81,WNW,284,12.0,16.0,88,0.04,,,0.35,Wunderground v.1.13,2013-02-13 20:31:00,
2013-02-13 15:37:00,41.1,37.5,29.81,WNW,298,12.0,14.0,87,0.00,,,0.35,Wunderground v.1.13,2013-02-13 20:37:00,
2013-02-13 15:43:00,41.1,37.5,29.82,WNW,285,12.0,13.0,87,0.00,,,0.35,Wunderground v.1.13,2013-02-13 20:43:00,
2013-02-13 15:48:00,41.1,37.2,29.82,WNW,302,14.0,17.0,86,0.00,,,0.35,Wunderground v.1.13,2013-02-13 20:48:00,
2013-02-13 15:54:00,41.0,37.1,29.83,NW,306,14.0,16.0,86,0.00,,,0.35,Wunderground v.1.13,2013-02-13 20:54:00,
2013-02-13 16:00:00,41.1,37.2,29.84,NW,309,13.0,14.0,86,0.00,,,0.35,Wunderground v.1.13,2013-02-13 21:00:00,
2013-02-13 16:05:00,41.2,37.0,29.84,WNW,295,14.0,15.0,85,0.00,,,0.35,Wunderground v.1.13,2013-02-13 21:05:00,
2013-02-13 16:10:00,41.5,37.3,29.85,NW,317,14.0,16.0,85,0.00,,,0.35,Wunderground v.1.13,2013-02-13 21:10:00,
2013-02-13 16:16:00,41.4,36.6,29.86,WNW,298,15.0,16.0,83,0.00,,,0.35,Wunderground v.1.13,2013-02-13 21:16:00,
2013-02-13 16:22:00,40.9,36.1,29.87,WNW,300,16.0,17.0,83,0.00,,,0.35,Wunderground v.1.13,2013-02-13 21:22:00,
2013-02-13 16:27:00,40.7,35.9,29.87,WNW,285,15.0,17.0,83,0.00,,,0.35,Wunderground v.1.13,2013-02-13 21:27:00,
2013-02-13 16:33:00,40.6,35.8,29.87,West,278,13.0,14.0,83,0.00,,,0.35,Wunderground v.1.13,2013-02-13 21:33:00,
2013-02-13 16:39:00,40.4,35.6,29.88,WNW,292,12.0,15.0,83,0.00,,,0.35,Wunderground v.1.13,2013-02-13 21:39:00,
2013-02-13 16:44:00,40.2,35.4,29.88,West,269,11.0,12.0,83,0.00,,,0.35,Wunderground v.1.13,2013-02-13 21:44:00,
2013-02-13 16:50:00,40.0,35.3,29.89,West,275,10.0,10.0,83,0.00,,,0.35,Wunderground v.1.13,2013-02-13 21:50:00,
2013-02-13 16:56:00,39.8,35.1,29.90,WNW,296,10.0,10.0,83,0.00,,,0.35,Wunderground v.1.13,2013-02-13 21:56:00,
2013-02-13 17:01:00,39.5,34.8,29.90,WNW,286,10.0,10.0,83,0.00,,,0.35,Wunderground v.1.13,2013-02-13 22:01:00,
2013-02-13 17:07:00,39.4,34.7,29.90,West,277,7.0,8.0,83,0.00,,,0.35,Wunderground v.1.13,2013-02-13 22:07:00,
2013-02-13 17:13:00,39.3,34.6,29.90,WNW,286,7.0,7.0,83,0.00,,,0.35,Wunderground v.1.13,2013-02-13 22:13:00,
2013-02-13 17:18:00,39.3,34.6,29.90,West,271,7.0,10.0,83,0.00,,,0.35,Wunderground v.1.13,2013-02-13 22:18:00,
2013-02-13 17:24:00,39.3,34.6,29.91,WNW,290,6.0,7.0,83,0.00,,,0.35,Wunderground v.1.13,2013-02-13 22:24:00,
2013-02-13 17:29:00,39.2,34.5,29.91,West,277,6.0,9.0,83,0.00,,,0.35,Wunderground v.1.13,2013-02-13 22:29:00,
2013-02-13 17:34:00,39.2,34.5,29.92,WNW,291,6.0,10.0,83,0.00,,,0.35,Wunderground v.1.13,2013-02-13 22:34:00,
2013-02-13 17:40:00,39.2,34.5,29.92,West,274,5.0,5.0,83,0.00,,,0.35,Wunderground v.1.13,2013-02-13 22:40:00,
2013-02-13 17:46:00,39.2,34.5,29.92,West,273,3.0,3.0,83,0.00,,,0.35,Wunderground v.1.13,2013-02-13 22:46:00,
2013-02-13 17:51:00,39.1,34.4,29.92,West,275,3.0,6.0,83,0.00,,,0.35,Wunderground v.1.13,2013-02-13 22:51:00,
2013-02-13 17:57:00,39.0,34.3,29.93,West,273,3.0,4.0,83,0.00,,,0.35,Wunderground v.1.13,2013-02-13 22:57:00,
2013-02-13 18:02:00,38.9,34.5,29.93,West,273,3.0,4.0,84,0.00,,,0.35,Wunderground v.1.13,2013-02-13 23:02:00,
2013-02-13 18:08:00,38.8,34.4,29.94,West,272,2.0,5.0,84,0.00,,,0.35,Wunderground v.1.13,2013-02-13 23:08:00,
2013-02-13 18:14:00,38.8,34.4,29.95,West,271,2.0,4.0,84,0.00,,,0.35,Wunderground v.1.13,2013-02-13 23:14:00,
2013-02-13 18:19:00,38.8,34.4,29.95,West,266,3.0,5.0,84,0.00,,,0.35,Wunderground v.1.13,2013-02-13 23:19:00,
2013-02-13 18:25:00,38.7,34.3,29.95,West,265,3.0,7.0,84,0.00,,,0.35,Wunderground v.1.13,2013-02-13 23:25:00,
2013-02-13 18:31:00,38.7,34.3,29.96,West,264,3.0,4.0,84,0.00,,,0.35,Wunderground v.1.13,2013-02-13 23:31:00,
2013-02-13 18:37:00,38.6,34.2,29.96,West,280,5.0,8.0,84,0.00,,,0.35,Wunderground v.1.13,2013-02-13 23:37:00,
2013-02-13 18:42:00,38.5,34.1,29.96,West,260,6.0,10.0,84,0.00,,,0.35,Wunderground v.1.13,2013-02-13 23:42:00,
2013-02-13 18:48:00,38.6,34.2,29.97,West,261,5.0,5.0,84,0.00,,,0.35,Wunderground v.1.13,2013-02-13 23:48:00,
2013-02-13 18:54:00,38.5,34.1,29.97,West,269,5.0,7.0,84,0.00,,,0.35,Wunderground v.1.13,2013-02-13 23:54:00,
2013-02-13 18:59:00,38.5,33.8,29.97,West,274,7.0,9.0,83,0.00,,,0.35,Wunderground v.1.13,2013-02-13 23:59:00,
2013-02-13 19:05:00,38.4,33.7,29.97,West,277,7.0,7.0,83,0.00,,,0.35,Wunderground v.1.13,2013-02-14 00:05:00,
2013-02-13 19:11:00,38.4,33.7,29.98,WNW,284,6.0,6.0,83,0.00,,,0.35,Wunderground v.1.13,2013-02-14 00:11:00,
2013-02-13 19:17:00,38.4,33.4,29.98,WNW,284,4.0,5.0,82,0.00,,,0.35,Wunderground v.1.13,2013-02-14 00:17:00,
2013-02-13 19:23:00,38.4,33.4,29.98,WNW,284,3.0,6.0,82,0.00,,,0.35,Wunderground v.1.13,2013-02-14 00:23:00,
2013-02-13 19:28:00,38.4,33.4,29.98,West,279,3.0,5.0,82,0.00,,,0.35,Wunderground v.1.13,2013-02-14 00:28:00,
2013-02-13 19:34:00,38.2,33.2,29.99,West,279,4.0,5.0,82,0.00,,,0.35,Wunderground v.1.13,2013-02-14 00:34:00,
2013-02-13 19:40:00,38.2,33.2,29.99,West,279,3.0,3.0,82,0.00,,,0.35,Wunderground v.1.13,2013-02-14 00:40:00,
2013-02-13 19:45:00,38.2,33.2,29.99,West,279,2.0,4.0,82,0.00,,,0.35,Wunderground v.1.13,2013-02-14 00:45:00,
2013-02-13 19:51:00,38.1,33.1,30.00,West,279,2.0,4.0,82,0.00,,,0.35,Wunderground v.1.13,2013-02-14 00:51:00,
2013-02-13 19:57:00,38.0,33.0,30.00,West,279,3.0,3.0,82,0.00,,,0.35,Wunderground v.1.13,2013-02-14 00:57:00,
2013-02-13 20:03:00,38.0,33.0,29.99,West,279,2.0,3.0,82,0.00,,,0.35,Wunderground v.1.13,2013-02-14 01:03:00,
2013-02-13 20:08:00,38.0,33.3,29.99,West,279,0.0,2.0,83,0.00,,,0.35,Wunderground v.1.13,2013-02-14 01:08:00,
2013-02-13 20:14:00,38.0,33.3,29.99,West,279,0.0,0.0,83,0.00,,,0.35,Wunderground v.1.13,2013-02-14 01:14:00,
2013-02-13 20:19:00,37.9,33.2,30.00,West,279,0.0,2.0,83,0.00,,,0.35,Wunderground v.1.13,2013-02-14 01:19:00,
2013-02-13 20:25:00,37.9,33.5,30.00,West,273,2.0,4.0,84,0.00,,,0.35,Wunderground v.1.13,2013-02-14 01:25:00,
2013-02-13 20:30:00,37.9,33.5,30.01,West,273,3.0,3.0,84,0.00,,,0.35,Wunderground v.1.13,2013-02-14 01:30:00,
2013-02-13 20:35:00,37.9,33.5,30.01,West,276,3.0,3.0,84,0.00,,,0.35,Wunderground v.1.13,2013-02-14 01:35:00,
2013-02-13 20:41:00,37.9,33.5,30.01,West,278,4.0,5.0,84,0.00,,,0.35,Wunderground v.1.13,2013-02-14 01:41:00,
2013-02-13 20:47:00,37.9,33.5,30.01,West,278,4.0,4.0,84,0.00,,,0.35,Wunderground v.1.13,2013-02-14 01:47:00,
2013-02-13 20:52:00,37.9,33.5,30.01,West,279,3.0,4.0,84,0.00,,,0.35,Wunderground v.1.13,2013-02-14 01:52:00,
2013-02-13 20:58:00,37.9,33.5,30.01,West,280,4.0,7.0,84,0.00,,,0.35,Wunderground v.1.13,2013-02-14 01:58:00,
2013-02-13 21:04:00,37.9,33.5,30.01,West,279,4.0,4.0,84,0.00,,,0.35,Wunderground v.1.13,2013-02-14 02:04:00,
2013-02-13 21:09:00,37.9,33.5,30.02,West,279,3.0,4.0,84,0.00,,,0.35,Wunderground v.1.13,2013-02-14 02:09:00,
2013-02-13 21:15:00,37.8,33.4,30.02,West,280,3.0,3.0,84,0.00,,,0.35,Wunderground v.1.13,2013-02-14 02:15:00,
2013-02-13 21:20:00,37.8,33.4,30.02,West,280,3.0,3.0,84,0.00,,,0.35,Wunderground v.1.13,2013-02-14 02:20:00,
2013-02-13 21:26:00,37.8,33.4,30.02,West,280,2.0,4.0,84,0.00,,,0.35,Wunderground v.1.13,2013-02-14 02:26:00,
2013-02-13 21:32:00,37.7,33.3,30.02,West,280,2.0,4.0,84,0.00,,,0.35,Wunderground v.1.13,2013-02-14 02:32:00,
2013-02-13 21:38:00,37.7,33.3,30.03,West,280,3.0,6.0,84,0.00,,,0.35,Wunderground v.1.13,2013-02-14 02:38:00,
2013-02-13 21:43:00,37.7,33.0,30.03,West,280,3.0,4.0,83,0.00,,,0.35,Wunderground v.1.13,2013-02-14 02:43:00,
2013-02-13 21:49:00,37.7,33.3,30.03,West,280,2.0,4.0,84,0.00,,,0.35,Wunderground v.1.13,2013-02-14 02:49:00,
2013-02-13 21:55:00,37.7,33.3,30.03,West,280,1.0,1.0,84,0.00,,,0.35,Wunderground v.1.13,2013-02-14 02:55:00,
2013-02-13 22:00:00,37.7,33.3,30.03,West,278,2.0,2.0,84,0.00,,,0.35,Wunderground v.1.13,2013-02-14 03:00:00,
2013-02-13 22:05:00,37.7,33.0,30.03,WNW,284,3.0,4.0,83,0.00,,,0.35,Wunderground v.1.13,2013-02-14 03:05:00,
2013-02-13 22:11:00,37.7,33.0,30.03,WNW,283,4.0,5.0,83,0.00,,,0.35,Wunderground v.1.13,2013-02-14 03:11:00,
2013-02-13 22:17:00,37.7,33.0,30.04,WNW,283,3.0,4.0,83,0.00,,,0.35,Wunderground v.1.13,2013-02-14 03:17:00,
2013-02-13 22:22:00,37.7,33.0,30.04,WNW,283,2.0,4.0,83,0.00,,,0.35,Wunderground v.1.13,2013-02-14 03:22:00,
2013-02-13 22:28:00,37.7,33.0,30.04,WNW,283,1.0,2.0,83,0.00,,,0.35,Wunderground v.1.13,2013-02-14 03:28:00,
2013-02-13 22:34:00,37.7,33.0,30.04,WNW,283,2.0,3.0,83,0.00,,,0.35,Wunderground v.1.13,2013-02-14 03:34:00,
2013-02-13 22:39:00,37.7,33.0,30.04,WNW,283,1.0,2.0,83,0.00,,,0.35,Wunderground v.1.13,2013-02-14 03:39:00,
2013-02-13 22:45:00,37.6,32.9,30.04,WNW,283,0.0,0.0,83,0.00,,,0.35,Wunderground v.1.13,2013-02-14 03:45:00,
2013-02-13 22:50:00,37.6,33.2,30.04,WNW,283,1.0,2.0,84,0.00,,,0.35,Wunderground v.1.13,2013-02-14 03:50:00,
2013-02-13 22:56:00,37.5,33.1,30.04,WNW,283,1.0,2.0,84,0.00,,,0.35,Wunderground v.1.13,2013-02-14 03:56:00,
2013-02-13 23:01:00,37.4,33.0,30.04,WNW,283,1.0,2.0,84,0.00,,,0.35,Wunderground v.1.13,2013-02-14 04:01:00,
2013-02-13 23:07:00,37.3,32.9,30.05,WNW,283,1.0,1.0,84,0.00,,,0.35,Wunderground v.1.13,2013-02-14 04:07:00,
2013-02-13 23:12:00,37.2,32.8,30.04,WNW,283,0.0,0.0,84,0.00,,,0.35,Wunderground v.1.13,2013-02-14 04:12:00,
2013-02-13 23:18:00,37.0,32.6,30.05,WNW,283,0.0,0.0,84,0.00,,,0.35,Wunderground v.1.13,2013-02-14 04:18:00,
2013-02-13 23:23:00,36.8,32.4,30.05,WNW,283,0.0,0.0,84,0.00,,,0.35,Wunderground v.1.13,2013-02-14 04:23:00,
2013-02-13 23:29:00,36.7,32.3,30.05,WNW,283,0.0,0.0,84,0.00,,,0.35,Wunderground v.1.13,2013-02-14 04:29:00,
2013-02-13 23:35:00,36.6,32.2,30.05,WNW,283,0.0,0.0,84,0.00,,,0.35,Wunderground v.1.13,2013-02-14 04:35:00,
2013-02-13 23:41:00,36.4,32.3,30.05,WNW,283,0.0,0.0,85,0.00,,,0.35,Wunderground v.1.13,2013-02-14 04:41:00,
2013-02-13 23:46:00,36.3,32.2,30.06,WNW,283,0.0,0.0,85,0.00,,,0.35,Wunderground v.1.13,2013-02-14 04:46:00,
2013-02-13 23:52:00,36.3,32.5,30.06,WNW,283,0.0,2.0,86,0.00,,,0.35,Wunderground v.1.13,2013-02-14 04:52:00,
2013-02-13 23:58:00,36.3,32.5,30.06,WNW,283,0.0,1.0,86,0.00,,,0.35,Wunderground v.1.13,2013-02-14 04:58:00,